Location: Unspecified
(0.0000°N, 0.0000°E)
Time: 04:29:50
(UTC+00:00)

Tiros 1 - Visible Passes

Search period start: 21 May 2026 00:00
Search period end: 31 May 2026 00:00
Orbit: 618 x 649 km, 48.4° (Epoch: 20 May)

Date Brightness Start Highest point End Pass type
(mag) Time Alt. Az. Time Alt. Az. Time Alt. Az.
21 May 10.4 04:52:18 10° NNE 04:53:47 11° NE 04:55:17 10° ENE visible
21 May 9.2 18:42:13 10° WSW 18:46:21 30° NW 18:50:28 10° N visible
22 May 9.0 05:11:11 10° NNW 05:15:17 34° NE 05:19:24 10° ESE visible
22 May 10.6 19:07:04 10° WNW 19:07:52 10° NW 19:08:39 10° NW visible
23 May 7.0 05:32:11 10° NW 05:36:41 75° SW 05:41:15 10° SE visible
24 May 9.4 04:12:46 10° N 04:16:26 24° NE 04:20:07 10° ESE visible
25 May 7.2 04:33:21 10° NW 04:37:52 76° NE 04:42:25 10° SE visible
26 May 9.7 03:18:13 17° ENE 03:18:13 17° ENE 03:20:36 10° E visible
26 May 7.7 04:55:51 14° WNW 04:59:16 33° SW 05:03:24 10° SSE visible
27 May 9.3 03:42:16 18° ESE 03:42:16 18° ESE 03:43:27 10° SE visible
27 May 8.9 05:19:50 11° WSW 05:20:47 11° SW 05:22:14 10° SSW visible
